Weather History for Hazen, ND

Change the Weather History Date:

Wednesday, April 2, 2014

  Actual Average (KN60) Record (KN60)
Temperature  
Mean Temperature 12 °F -  
Max Temperature 30 °F 42 °F 59 °F (2005)
Min Temperature -5 °F 22 °F 6 °F (2014)
Degree Days  
Heating Degree Days 52    
Moisture  
Dew Point 9 °F    
Average Humidity 73    
Maximum Humidity 93    
Minimum Humidity 43    
Precipitation  
Precipitation 0.51 in - - ()
Sea Level Pressure  
Sea Level Pressure 30.05 in    
Wind  
Wind Speed 4 mph (ESE)    
Max Wind Speed 14 mph    
Max Gust Speed 21 mph    
Visibility 8 miles    
Events Snow    
Averages and records for this station are not official NWS values.
T = Trace of Precipitation, MM = Missing Value Source: NWS Daily Summary

Daily Weather History Graph

Daily Weather History Graph

Search for Another Location

Airport:

Trip Planner

Search our weather history database for the weather conditions in past years. The results will help you decide how hot, cold, wet, or windy it might be!

Date:

Astronomy

Apr. 02, 2014 Rise Set
Actual Time 7:23 AM CDT 8:17 PM CDT
Civil Twilight 6:52 AM CDT 8:48 PM CDT
Nautical Twilight 6:15 AM CDT 9:25 PM CDT
Astronomical Twilight 5:35 AM CDT 10:05 PM CDT
Moon 8:57 AM CDT (4/2) 11:55 PM CDT (4/2)
Length of Visible Light 13h 56m
Length of Day
12h 54m
Waxing Crescent, 10% of the Moon is Illuminated
Apr 2
Waxing Crescent
Apr 7
First Quarter
Apr 15
Full
Apr 22
Last Quarter
Apr 29
New

Hourly Weather History & Observations

Time (CDT) Temp. Windchill Dew Point Humidity Pressure Visibility Wind Dir Wind Speed Gust Speed Precip Events Conditions
12:15 AM -2.2 °F - -9.4 °F 71% 30.12 in 10.0 mi Calm Calm - N/A   Clear
12:35 AM -2.2 °F - -9.4 °F 71% 30.12 in 10.0 mi Calm Calm - N/A   Partly Cloudy
12:55 AM -2.2 °F - -9.4 °F 71% 30.11 in 10.0 mi Calm Calm - N/A   Partly Cloudy
1:15 AM -4.0 °F - -11.2 °F 71% 30.11 in 10.0 mi Calm Calm - N/A   Scattered Clouds
1:35 AM -4.0 °F -12.4 °F -9.4 °F 78% 30.11 in 10.0 mi SSE 3.5 mph - N/A   Scattered Clouds
1:55 AM -4.0 °F - -11.2 °F 71% 30.11 in 10.0 mi Calm Calm - N/A   Partly Cloudy
2:15 AM -4.0 °F - -11.2 °F 71% 30.11 in 10.0 mi Calm Calm - N/A   Clear
2:35 AM -4.0 °F - -11.2 °F 71% 30.11 in 10.0 mi Calm Calm - N/A   Clear
2:55 AM -4.0 °F - -9.4 °F 78% 30.11 in 10.0 mi Calm Calm - N/A   Clear
3:15 AM -5.8 °F - -11.2 °F 77% 30.10 in 10.0 mi Calm Calm - N/A   Clear
3:35 AM -5.8 °F - -11.2 °F 77% 30.10 in 10.0 mi Calm Calm - N/A   Mostly Cloudy
3:55 AM -0.4 °F - -7.6 °F 72% 30.10 in 10.0 mi Calm Calm - N/A   Overcast
4:15 AM -0.4 °F - -4.0 °F 85% 30.10 in 10.0 mi Calm Calm - N/A   Overcast
4:35 AM 3.2 °F - -2.2 °F 78% 30.09 in 10.0 mi Calm Calm - N/A   Overcast
4:55 AM 3.2 °F - -2.2 °F 78% 30.09 in 10.0 mi Calm Calm - N/A   Overcast
5:15 AM 5.0 °F - -0.4 °F 78% 30.08 in 10.0 mi Calm Calm - N/A   Overcast
5:35 AM 6.8 °F -0.1 °F 1.4 °F 79% 30.08 in 10.0 mi ENE 3.5 mph - N/A   Overcast
5:55 AM 6.8 °F -4.8 °F 1.4 °F 79% 30.08 in 10.0 mi ENE 6.9 mph - N/A   Overcast
6:15 AM 8.6 °F 0.1 °F 3.2 °F 79% 30.08 in 10.0 mi ENE 4.6 mph - N/A   Overcast
7:35 AM 10.4 °F 0.8 °F 5.0 °F 79% 30.08 in 10.0 mi NE 5.8 mph - N/A   Overcast
7:55 AM 10.4 °F 0.8 °F 6.8 °F 85% 30.08 in 10.0 mi ENE 5.8 mph - N/A   Overcast
8:15 AM 12.2 °F 2.9 °F 6.8 °F 79% 30.07 in 10.0 mi ENE 5.8 mph - N/A   Overcast
8:35 AM 14.0 °F 5.1 °F 8.6 °F 79% 30.07 in 10.0 mi ENE 5.8 mph - N/A   Overcast
8:55 AM 15.8 °F 8.6 °F 10.4 °F 79% 30.07 in 10.0 mi NE 4.6 mph - N/A   Overcast
9:15 AM 15.8 °F 7.2 °F 10.4 °F 79% 30.07 in 10.0 mi ENE 5.8 mph - N/A   Overcast
9:35 AM 17.6 °F 9.3 °F 12.2 °F 79% 30.06 in 10.0 mi East 5.8 mph - N/A   Overcast
9:55 AM 17.6 °F 8.2 °F 12.2 °F 79% 30.07 in 10.0 mi ENE 6.9 mph - N/A   Overcast
10:15 AM 17.6 °F 10.7 °F 10.4 °F 73% 30.07 in 10.0 mi East 4.6 mph - N/A   Overcast
10:35 AM 19.4 °F 11.5 °F 12.2 °F 74% 30.07 in 10.0 mi ENE 5.8 mph - N/A   Overcast
10:55 AM 19.4 °F 12.8 °F 14.0 °F 80% 30.07 in 10.0 mi East 4.6 mph - N/A   Overcast
11:15 AM 23.0 °F 14.7 °F 15.8 °F 74% 30.07 in 10.0 mi ESE 6.9 mph - N/A   Overcast
11:35 AM 24.8 °F 15.3 °F 15.8 °F 69% 30.06 in 10.0 mi ESE 9.2 mph - N/A   Overcast
11:55 AM 24.8 °F 14.0 °F 15.8 °F 69% 30.06 in 10.0 mi ESE 11.5 mph 16.1 mph N/A   Overcast
12:15 PM 24.8 °F 16.9 °F 15.8 °F 69% 30.07 in 10.0 mi SE 6.9 mph - N/A   Overcast
12:55 PM 26.6 °F 16.2 °F 15.8 °F 64% 30.06 in 10.0 mi SE 11.5 mph - N/A   Overcast
1:15 PM 26.6 °F 17.5 °F 15.8 °F 64% 30.05 in 10.0 mi SE 9.2 mph - N/A   Overcast
1:35 PM 26.6 °F 18.2 °F 14.0 °F 59% 30.05 in 10.0 mi SE 8.1 mph - N/A   Overcast
1:55 PM 26.6 °F 19.1 °F 14.0 °F 59% 30.05 in 10.0 mi ESE 6.9 mph - N/A   Overcast
2:15 PM 26.6 °F 17.5 °F 14.0 °F 59% 30.05 in 10.0 mi ESE 9.2 mph - N/A   Mostly Cloudy
2:35 PM 28.4 °F 21.2 °F 14.0 °F 55% 30.05 in 10.0 mi SE 6.9 mph - N/A   Partly Cloudy
2:55 PM 28.4 °F 17.5 °F 10.4 °F 47% 30.04 in 10.0 mi SSE 13.8 mph - N/A   Partly Cloudy
3:15 PM 28.4 °F 18.0 °F 10.4 °F 47% 30.04 in 10.0 mi SSE 12.7 mph - N/A   Mostly Cloudy
3:35 PM 28.4 °F 18.0 °F 8.6 °F 43% 30.02 in 10.0 mi SE 12.7 mph 20.7 mph N/A   Overcast
3:55 PM 30.2 °F 20.8 °F 12.2 °F 47% 30.02 in 10.0 mi ESE 11.5 mph - N/A   Mostly Cloudy
4:15 PM 30.2 °F 21.9 °F 12.2 °F 47% 30.01 in 10.0 mi ESE 9.2 mph - N/A   Scattered Clouds
4:35 PM 30.2 °F 21.3 °F 14.0 °F 51% 30.00 in 10.0 mi ESE 10.4 mph - N/A   Partly Cloudy
4:55 PM 30.2 °F 20.8 °F 14.0 °F 51% 30.00 in 10.0 mi ESE 11.5 mph - N/A   Clear
5:15 PM 30.2 °F 21.9 °F 15.8 °F 55% 30.00 in 10.0 mi East 9.2 mph - N/A   Partly Cloudy
5:35 PM 30.2 °F 21.3 °F 15.8 °F 55% 29.99 in 10.0 mi East 10.4 mph - N/A   Partly Cloudy
5:55 PM 30.2 °F 22.6 °F 15.8 °F 55% 30.00 in 10.0 mi ESE 8.1 mph 16.1 mph N/A   Clear
6:15 PM 28.4 °F 20.4 °F 17.6 °F 64% 30.00 in 10.0 mi SE 8.1 mph - N/A   Scattered Clouds
6:35 PM 28.4 °F 18.5 °F 17.6 °F 64% 30.01 in 8.0 mi SE 11.5 mph - N/A   Scattered Clouds
6:55 PM 26.6 °F 16.8 °F 19.4 °F 74% 30.01 in 3.0 mi ESE 10.4 mph - N/A   Clear
7:15 PM 26.6 °F 18.2 °F 21.2 °F 80% 30.01 in 1.5 mi ESE 8.1 mph - 0.01 in Snow Light Snow
7:35 PM 26.6 °F 20.0 °F 23.0 °F 86% 30.01 in 1.2 mi ESE 5.8 mph - 0.06 in Snow Light Snow
7:55 PM 24.8 °F 17.9 °F 23.0 °F 93% 30.02 in 1.2 mi ESE 5.8 mph - 0.10 in Snow Light Snow
8:15 PM 24.8 °F 19.1 °F 23.0 °F 93% 30.02 in 0.8 mi East 4.6 mph - 0.04 in Snow Light Snow
8:35 PM 24.8 °F 17.9 °F 23.0 °F 93% 30.02 in 0.8 mi East 5.8 mph - 0.11 in Snow Light Snow
8:55 PM 24.8 °F 16.1 °F 23.0 °F 93% 30.02 in 1.8 mi East 8.1 mph - 0.18 in Snow Light Snow
9:15 PM 24.8 °F 16.9 °F 23.0 °F 93% 30.02 in 2.0 mi ESE 6.9 mph - 0.03 in Snow Light Snow
9:35 PM 24.8 °F 16.9 °F 23.0 °F 93% 30.02 in 1.8 mi ESE 6.9 mph - 0.11 in Snow Light Snow
9:55 PM 24.8 °F 17.9 °F 23.0 °F 93% 30.02 in 2.5 mi East 5.8 mph - 0.15 in Snow Light Snow
10:15 PM 24.8 °F 16.9 °F 23.0 °F 93% 30.02 in 1.8 mi ESE 6.9 mph - 0.02 in Snow Light Snow
10:35 PM 24.8 °F 16.9 °F 23.0 °F 93% 30.02 in 2.5 mi ESE 6.9 mph - 0.05 in Snow Light Snow
11:15 PM 24.8 °F 16.9 °F 23.0 °F 93% 30.02 in 4.0 mi ESE 6.9 mph - N/A Snow Light Snow
11:35 PM 24.8 °F 19.1 °F 21.2 °F 86% 30.02 in 2.5 mi East 4.6 mph - 0.01 in Snow Light Snow
11:55 PM 24.8 °F 17.9 °F 21.2 °F 86% 30.01 in 3.0 mi East 5.8 mph - 0.03 in Snow Light Snow